CZ-5B R/B (54217 NORAD) Tracking and Keplerian Element Data

This shows tracking and keplerian element data for the satellite.

Feedback or suggestion? Click here.




ElementValue
Catalog54217
NameCZ-5B R/B
Epoch Orbit56
Epoch Day307.83202162
Epoch Year2022
RAAN86.2946
Inclination41.4725
Eccentricity0.0049889
Argument of Perigee204.7631
Mean Anonmoly283.9192
Mean Motion16.33819495
Decay Rate0.07541702
L11 54217U 22143B 22307.83202162 .07541702 75736-5 53797-3 0 9992
L22 54217 41.4725 86.2946 0049889 204.7631 283.9192 16.33819495 564



Live tracking and technical data element details for CZ-5B R/B (NORAD 54217). CZ-5B R/B can be tracked NOW for your location showing map with azimuth and elevation plus other details from your city location.







IsCatalogInMostPopularTable: catalog: 54217, numindb: 18
Update: records affected: 1



GetName: 54217 CZ-5B R/B

Hit Count: updated at: Sun, 04 Dec 2022 22:56:06 GMT